Location: Taipo
(41.0000°S, 175.9500°E)
Time: 10:26:43
(UTC+00:00)

CZ-2C R/B - Pass Details

Date: 18 April 2024
Orbit: 464 x 514 km, 97.8° (Epoch: 24 May)

Event Time Altitude Azimuth Distance (km) Brightness Sun altitude
Rises 18:19:09 0° 358° (N) 2,528 6.3 -6.6°
Reaches altitude 10° 18:21:17 10° 351° (N) 1,651 5.3 -6.2°
Maximum altitude 18:24:38 40° 279° (W) 714 3.0 -5.6°
Drops below altitude 10° 18:28:01 10° 208° (SSW) 1,659 4.9 -5.0°
Sets 18:30:10 0° 200° (SSW) 2,542 5.9 -4.6°
